TimeEDT,TemperatureF,Dew PointF,Humidity,Sea Level PressureIn,VisibilityMPH,Wind Direction,Wind SpeedMPH,Gust SpeedMPH,PrecipitationIn,Events,Conditions,WindDirDegrees,DateUTC
12:15 AM,37.4,30.2,75,29.94,10.0,Calm,Calm,-,N/A,,Clear,0,2012-10-17 04:15:00
12:35 AM,37.4,30.2,75,29.94,10.0,North,5.8,-,N/A,,Clear,360,2012-10-17 04:35:00
12:55 AM,37.4,30.2,75,29.94,10.0,NNE,3.5,-,N/A,,Clear,30,2012-10-17 04:55:00
1:15 AM,35.6,30.2,81,29.94,10.0,Calm,Calm,-,N/A,,Clear,0,2012-10-17 05:15:00
1:35 AM,35.6,30.2,81,29.93,10.0,North,6.9,-,N/A,,Clear,360,2012-10-17 05:35:00
1:55 AM,35.6,32.0,87,29.93,10.0,NNW,4.6,-,N/A,,Clear,330,2012-10-17 05:55:00
2:15 AM,35.6,28.4,75,29.94,10.0,NNW,3.5,-,N/A,,Clear,330,2012-10-17 06:15:00
2:35 AM,35.6,30.2,81,29.94,10.0,Calm,Calm,-,N/A,,Clear,0,2012-10-17 06:35:00
3:15 AM,35.6,30.2,81,29.94,10.0,Calm,Calm,-,N/A,,Clear,0,2012-10-17 07:15:00
3:35 AM,35.6,30.2,81,29.94,10.0,WNW,3.5,-,N/A,,Clear,300,2012-10-17 07:35:00
3:55 AM,33.8,28.4,81,29.94,10.0,Calm,Calm,-,N/A,,Clear,0,2012-10-17 07:55:00
4:15 AM,33.8,28.4,81,29.94,10.0,Calm,Calm,-,N/A,,Clear,0,2012-10-17 08:15:00
4:35 AM,33.8,28.4,81,29.94,10.0,North,4.6,-,N/A,,Clear,10,2012-10-17 08:35:00
4:55 AM,33.8,28.4,81,29.95,10.0,Calm,Calm,-,N/A,,Clear,0,2012-10-17 08:55:00
5:15 AM,33.8,30.2,87,29.95,10.0,Calm,Calm,-,N/A,,Clear,0,2012-10-17 09:15:00
5:35 AM,33.8,30.2,87,29.95,10.0,Calm,Calm,-,N/A,,Clear,0,2012-10-17 09:35:00
5:45 AM,35.6,30.2,81,29.95,10.0,North,3.5,-,N/A,,Clear,10,2012-10-17 09:45:00
5:55 AM,33.8,28.4,81,29.96,10.0,Calm,Calm,-,N/A,,Clear,0,2012-10-17 09:55:00
6:45 AM,33.8,28.4,81,29.97,10.0,Calm,Calm,-,N/A,Fog,Patches of Fog,0,2012-10-17 10:45:00
7:45 AM,33.8,28.4,81,29.98,10.0,Calm,Calm,-,N/A,Fog,Patches of Fog,0,2012-10-17 11:45:00
8:45 AM,39.2,33.8,81,30.01,10.0,Calm,Calm,-,N/A,,Clear,0,2012-10-17 12:45:00
9:45 AM,44.6,33.8,66,30.01,10.0,Calm,Calm,-,N/A,,Clear,0,2012-10-17 13:45:00
10:45 AM,48.2,35.6,62,30.02,10.0,North,5.8,-,N/A,,Clear,350,2012-10-17 14:45:00
11:45 AM,51.8,37.4,58,30.00,10.0,NE,5.8,-,N/A,,Clear,50,2012-10-17 15:45:00
12:45 PM,53.6,37.4,54,29.99,10.0,WNW,4.6,-,N/A,,Clear,290,2012-10-17 16:45:00
1:45 PM,55.4,37.4,51,29.96,10.0,Calm,Calm,-,N/A,,Clear,0,2012-10-17 17:45:00
2:45 PM,57.2,37.4,48,29.96,10.0,WNW,5.8,-,N/A,,Clear,290,2012-10-17 18:45:00
3:45 PM,59.0,35.6,42,29.95,10.0,West,5.8,-,N/A,,Clear,270,2012-10-17 19:45:00
4:45 PM,57.2,35.6,44,29.96,10.0,Calm,Calm,-,N/A,,Clear,0,2012-10-17 20:45:00
5:45 PM,57.2,35.6,44,29.97,10.0,Calm,Calm,-,N/A,,Clear,0,2012-10-17 21:45:00
6:45 PM,51.8,39.2,62,29.99,10.0,Calm,Calm,-,N/A,,Clear,0,2012-10-17 22:45:00
7:45 PM,51.8,41.0,67,30.00,10.0,Calm,Calm,-,N/A,,Clear,0,2012-10-17 23:45:00
8:55 PM,50.0,39.2,66,30.01,10.0,Calm,Calm,-,N/A,,Clear,0,2012-10-18 00:55:00
9:15 PM,48.2,39.2,71,30.01,10.0,Calm,Calm,-,N/A,,Clear,0,2012-10-18 01:15:00
9:35 PM,46.4,41.0,81,30.02,10.0,Calm,Calm,-,N/A,,Clear,0,2012-10-18 01:35:00
9:55 PM,46.4,39.2,76,30.02,10.0,Calm,Calm,-,N/A,,Clear,0,2012-10-18 01:55:00
10:15 PM,44.6,39.2,81,30.03,10.0,Calm,Calm,-,N/A,,Clear,0,2012-10-18 02:15:00
10:35 PM,44.6,39.2,81,30.03,10.0,Calm,Calm,-,N/A,,Clear,0,2012-10-18 02:35:00
10:55 PM,44.6,39.2,81,30.03,10.0,Calm,Calm,-,N/A,,Clear,0,2012-10-18 02:55:00
11:15 PM,42.8,37.4,81,30.03,10.0,Calm,Calm,-,N/A,,Clear,0,2012-10-18 03:15:00
11:35 PM,42.8,37.4,81,30.03,10.0,Calm,Calm,-,N/A,,Clear,0,2012-10-18 03:35:00
11:55 PM,42.8,37.4,81,30.03,10.0,Calm,Calm,-,N/A,,Clear,0,2012-10-18 03:55:00